23 de mayo de 2022

Hora Código Tiempo Temp. Visibilidad Nubes Viento METAR/SPECI
08:55
V
16 °C 10 km+ - 110°   110° 6 kt METAR EHLE 230655Z AUTO 11006KT 080V140 9999 NSC 16/12 Q1003 NOSIG
08:25
V
15 °C 10 km+ - 110°   110° 5 kt METAR EHLE 230625Z AUTO 11005KT 070V140 9999 NSC 15/11 Q1004 NOSIG
07:55
V
14 °C 10 km+ - 110°   110° 5 kt METAR EHLE 230555Z AUTO 11005KT 060V130 9999 NSC 14/11 Q1004 NOSIG
07:25
V
14 °C 10 km+ - 110°   110° 5 kt METAR EHLE 230525Z AUTO 11005KT 070V150 9999 NSC 14/10 Q1004 NOSIG
06:55
V
13 °C 10 km+ - 080°   080° 4 kt METAR EHLE 230455Z AUTO 08004KT 050V110 9999 NSC 13/10 Q1005
06:25
V
13 °C 10 km+ - 080°   080° 4 kt METAR EHLE 230425Z AUTO 08004KT 9999 NSC 13/09 Q1005
05:55
V
12 °C 10 km+ - 070°   070° 4 kt METAR EHLE 230355Z AUTO 07004KT 9999 NSC 12/09 Q1006
05:25
V
13 °C 10 km+ - 090°   090° 4 kt METAR EHLE 230325Z AUTO 09004KT 9999 NSC 13/09 Q1006
04:55
V
14 °C 10 km+ - 100°   100° 5 kt METAR EHLE 230255Z AUTO 10005KT 070V130 9999 NSC 14/09 Q1007
04:25
V
14 °C 10 km+ - 090°   090° 5 kt METAR EHLE 230225Z AUTO 09005KT 9999 NSC 14/09 Q1007
03:55
V
14 °C 10 km+ - 090°   090° 4 kt METAR EHLE 230155Z AUTO 09004KT 060V120 9999 NSC 14/09 Q1007
03:25
V
14 °C 10 km+ - 090°   090° 4 kt METAR EHLE 230125Z AUTO 09004KT 9999 NSC 14/10 Q1007
02:55
V
14 °C 10 km+ - 100°   100° 4 kt METAR EHLE 230055Z AUTO 10004KT 050V140 9999 NSC 14/09 Q1008
02:25
V
14 °C 10 km+ - 110°   110° 7 kt METAR EHLE 230025Z AUTO 11007KT 9999 NSC 14/10 Q1008
01:55
V
15 °C 10 km+ - 110°   110° 7 kt METAR EHLE 222355Z AUTO 11007KT 080V150 9999 NSC 15/10 Q1009
01:25
V
15 °C 10 km+ - 110°   110° 7 kt METAR EHLE 222325Z AUTO 11007KT 080V140 9999 NSC 15/10 Q1009
00:55
V
15 °C 10 km+ - 110°   110° 7 kt METAR EHLE 222255Z AUTO 11007KT 080V150 9999 NSC 15/10 Q1009
00:25
V
15 °C 10 km+ - 110°   110° 6 kt METAR EHLE 222225Z AUTO 11006KT 080V140 9999 NSC 15/10 Q1009

22 de mayo de 2022

Hora Código Tiempo Temp. Visibilidad Nubes Viento METAR/SPECI
23:55
V
16 °C 10 km+ - 100°   100° 6 kt METAR EHLE 222155Z AUTO 10006KT 070V130 9999 NSC 16/10 Q1010
23:25
V
16 °C 10 km+ - 100°   100° 6 kt METAR EHLE 222125Z AUTO 10006KT 9999 NSC 16/10 Q1010
22:55
V
16 °C 10 km+ - 100°   100° 6 kt METAR EHLE 222055Z AUTO 10006KT 070V130 9999 NSC 16/10 Q1010
22:25
V
17 °C 10 km+ - 100°   100° 5 kt METAR EHLE 222025Z AUTO 10005KT 070V130 9999 NSC 17/10 Q1010
21:55
V
18 °C 10 km+ - 100°   100° 5 kt METAR EHLE 221955Z AUTO 10005KT 9999 NSC 18/10 Q1011 NOSIG
21:25
V
18 °C 10 km+ - 100°   100° 5 kt METAR EHLE 221925Z AUTO 10005KT 9999 NSC 18/10 Q1011 NOSIG
20:55
V
19 °C 10 km+ - 110°   110° 6 kt METAR EHLE 221855Z AUTO 11006KT 9999 NSC 19/10 Q1011 NOSIG
20:25
V
19 °C 10 km+ - 110°   110° 7 kt METAR EHLE 221825Z AUTO 11007KT 080V140 9999 NSC 19/10 Q1011 NOSIG
19:55
V
20 °C 10 km+ - 110°   110° 8 kt METAR EHLE 221755Z AUTO 11008KT 080V140 9999 NSC 20/10 Q1011 NOSIG
19:25
V
21 °C 10 km+ - 110°   110° 8 kt METAR EHLE 221725Z AUTO 11008KT 090V160 9999 NSC 21/10 Q1011 NOSIG
18:55
V
21 °C 10 km+ - 130°   130° 7 kt METAR EHLE 221655Z AUTO 13007KT 080V170 9999 NSC 21/10 Q1012 NOSIG
18:25
V
21 °C 10 km+ - 120°   120° 9 kt METAR EHLE 221625Z AUTO 12009KT 080V140 9999 NSC 21/10 Q1012 NOSIG
17:55
V
21 °C 10 km+ - 110°   110° 9 kt METAR EHLE 221555Z AUTO 11009KT 070V150 9999 NSC 21/10 Q1012 NOSIG
17:25
V
21 °C 10 km+ - 110°   110° 8 kt METAR EHLE 221525Z AUTO 11008KT 060V140 9999 NSC 21/10 Q1012 NOSIG
16:55
V
21 °C 10 km+ - 120°   120° 6 kt METAR EHLE 221455Z AUTO 12006KT 040V160 9999 NSC 21/10 Q1013 NOSIG
16:25
V
21 °C 10 km+ - 120°   120° 6 kt METAR EHLE 221425Z AUTO 12006KT 060V210 9999 NSC 21/09 Q1013 NOSIG
15:55
V
21 °C 10 km+ - 110°   110° 6 kt METAR EHLE 221355Z AUTO 11006KT 070V210 9999 SCT049 21/11 Q1014 NOSIG
15:25
V
21 °C 10 km+ - 120°   120° 8 kt METAR EHLE 221325Z AUTO 12008KT 090V190 9999 FEW048 21/10 Q1014 NOSIG
14:55
V
20 °C 10 km+ 4.600 ft 110°   110° 4 kt METAR EHLE 221255Z AUTO 11004KT 040V170 9999 BKN046 20/09 Q1015 NOSIG
14:25
V
20 °C 10 km+ - 130°   130° 5 kt METAR EHLE 221225Z AUTO 13005KT 030V200 9999 NSC 20/09 Q1015 NOSIG
13:55
V
20 °C 10 km+ - Var   Var 4 kt METAR EHLE 221155Z AUTO VRB04KT 9999 NSC 20/10 Q1015 NOSIG
13:25
V
19 °C 10 km+ - Var   Var 3 kt METAR EHLE 221125Z AUTO VRB03KT 9999 NSC 19/08 Q1016 NOSIG
12:55
V
19 °C 10 km+ - 180°   180° 4 kt METAR EHLE 221055Z AUTO 18004KT 080V230 9999 NSC 19/10 Q1016 NOSIG
12:25
V
18 °C 10 km+ - 120°   120° 4 kt METAR EHLE 221025Z AUTO 12004KT 040V200 9999 NSC 18/09 Q1016 NOSIG
11:55
V
18 °C 10 km+ - 160°   160° 5 kt METAR EHLE 220955Z AUTO 16005KT 100V230 9999 NSC 18/09 Q1016 NOSIG
11:25
V
18 °C 10 km+ - 140°   140° 5 kt METAR EHLE 220925Z AUTO 14005KT 080V210 9999 NSC 18/09 Q1017 NOSIG
10:55
V
17 °C 10 km+ - 150°   150° 4 kt METAR EHLE 220855Z AUTO 15004KT 090V240 9999 NSC 17/10 Q1017 NOSIG
10:25
V
16 °C 10 km+ - 180°   180° 5 kt METAR EHLE 220825Z AUTO 18005KT 120V230 9999 NSC 16/10 Q1017 NOSIG
09:55
V
16 °C 10 km+ - 170°   170° 5 kt METAR EHLE 220755Z AUTO 17005KT 140V220 9999 NSC 16/10 Q1017 NOSIG
09:25
V
15 °C 10 km+ - 160°   160° 5 kt METAR EHLE 220725Z AUTO 16005KT 120V190 9999 NSC 15/10 Q1018 NOSIG
08:55
V
14 °C 10 km+ - 160°   160° 5 kt METAR EHLE 220655Z AUTO 16005KT 9999 NCD 14/11 Q1018 NOSIG
08:25
V
13 °C 10 km+ - 150°   150° 3 kt METAR EHLE 220625Z AUTO 15003KT 110V180 9999 NCD 13/11 Q1018 NOSIG
07:55
V
11 °C 10 km+ - 160°   160° 3 kt METAR EHLE 220555Z AUTO 16003KT 130V190 9999 NCD 11/10 Q1018 NOSIG
07:25
V
10 °C 10 km+ - Var   Var 2 kt METAR EHLE 220525Z AUTO VRB02KT 9999 NCD 10/10 Q1018 NOSIG
06:55
V
9 °C 10 km+ - 120°   120° 2 kt METAR EHLE 220455Z AUTO 12002KT 9999 NSC 09/08 Q1018
06:25
V
7 °C 10 km+ - 140°   140° 1 kt METAR EHLE 220425Z AUTO 14001KT 9999 NSC 07/07 Q1018
05:55
V
7 °C 10 km+ - 150°   150° 3 kt METAR EHLE 220355Z AUTO 15003KT 9999 NSC 07/07 Q1018
05:25
V
7 °C 10 km+ - 120°   120° 2 kt METAR EHLE 220325Z AUTO 12002KT 9999 NSC 07/06 Q1018
04:55
V
7 °C 10 km+ - 160°   160° 3 kt METAR EHLE 220255Z AUTO 16003KT 110V180 9999 NSC 07/07 Q1018
04:25
V
7 °C 10 km+ - 160°   160° 3 kt METAR EHLE 220225Z AUTO 16003KT 9999 NCD 07/07 Q1018
03:55
V
8 °C 10 km+ - Var   Var 1 kt METAR EHLE 220155Z AUTO VRB01KT 9999 NCD 08/07 Q1019
03:25
V
8 °C 10 km+ - 050°   050° 1 kt METAR EHLE 220125Z AUTO 05001KT 9999 NCD 08/08 Q1019
02:55
V
7 °C 10 km+ - 360°   360° 2 kt METAR EHLE 220055Z AUTO 36002KT 9999 NCD 07/07 Q1019
02:25
V
8 °C 10 km+ - 170°   170° 3 kt METAR EHLE 220025Z AUTO 17003KT 9999 NSC 08/08 Q1019
01:55
V
8 °C 10 km+ - 160°   160° 2 kt METAR EHLE 212355Z AUTO 16002KT 9999 NCD 08/08 Q1019
01:25
V
9 °C 10 km+ - 230°   230° 2 kt METAR EHLE 212325Z AUTO 23002KT 9999 NSC 09/08 Q1019
00:55
V
8 °C 10 km+ - Var   000° 0 kt METAR EHLE 212255Z AUTO 00000KT 9999 NSC 08/08 Q1019
00:25
V
9 °C 10 km+ - 150°   150° 2 kt METAR EHLE 212225Z AUTO 15002KT 9999 NSC 09/09 Q1019

21 de mayo de 2022

Hora Código Tiempo Temp. Visibilidad Nubes Viento METAR/SPECI
23:55
V
10 °C 10 km+ - 140°   140° 3 kt METAR EHLE 212155Z AUTO 14003KT 9999 NCD 10/09 Q1020
23:25
V
10 °C 10 km+ - 250°   250° 1 kt METAR EHLE 212125Z AUTO 25001KT 9999 NCD 10/09 Q1020
22:55
V
11 °C 10 km+ - 280°   280° 3 kt METAR EHLE 212055Z AUTO 28003KT 9999 NCD 11/09 Q1020
22:25
V
12 °C 10 km+ - Var   Var 2 kt METAR EHLE 212025Z AUTO VRB02KT 9999 NCD 12/09 Q1020
21:55
V
13 °C 10 km+ - 320°   320° 3 kt METAR EHLE 211955Z AUTO 32003KT 9999 NSC 13/09 Q1020 NOSIG
21:25
V
14 °C 10 km+ - 310°   310° 3 kt METAR EHLE 211925Z AUTO 31003KT 9999 NSC 14/10 Q1020 NOSIG
20:55
V
15 °C 10 km+ - 320°   320° 4 kt METAR EHLE 211855Z AUTO 32004KT 9999 NSC 15/10 Q1020 NOSIG
20:25
V
16 °C 10 km+ - 320°   320° 6 kt METAR EHLE 211825Z AUTO 32006KT 290V350 9999 NSC 16/10 Q1020 NOSIG
19:55
V
16 °C 10 km+ - 300°   300° 6 kt METAR EHLE 211755Z AUTO 30006KT 250V330 9999 NSC 16/09 Q1020 NOSIG
19:25
V
15 °C 10 km+ - 290°   290° 8 kt METAR EHLE 211725Z AUTO 29008KT 260V340 9999 NSC 15/09 Q1020 NOSIG
18:55
V
16 °C 10 km+ - 280°   280° 10 kt METAR EHLE 211655Z AUTO 28010KT 240V320 9999 NSC 16/09 Q1020 NOSIG
18:25
V
16 °C 10 km+ - 290°   290° 9 kt METAR EHLE 211625Z AUTO 29009KT 240V330 9999 NSC 16/10 Q1020 NOSIG
17:55
V
15 °C 10 km+ - 300°   300° 11 kt METAR EHLE 211555Z AUTO 30011KT 270V330 9999 NSC 15/10 Q1021 NOSIG
17:25
V
16 °C 10 km+ - 290°   290° 11 kt METAR EHLE 211525Z AUTO 29011KT 250V330 9999 NSC 16/10 Q1021 NOSIG
16:55
V
16 °C 10 km+ - 280°   280° 11 kt METAR EHLE 211455Z AUTO 28011KT 250V310 9999 NSC 16/10 Q1021 NOSIG
16:25
V
16 °C 10 km+ - 270°   270° 11 kt METAR EHLE 211425Z AUTO 27011KT 240V320 9999 NSC 16/10 Q1021 NOSIG
15:55
V
16 °C 10 km+ - 280°   280° 11 kt METAR EHLE 211355Z AUTO 28011KT 250V310 9999 FEW043 16/11 Q1021 NOSIG
15:25
V
17 °C 10 km+ - 270°   270° 11 kt METAR EHLE 211325Z AUTO 27011KT 240V310 9999 FEW024 SCT033 17/11 Q1021 NOSIG
14:55
V
17 °C 10 km+ - 270°   270° 12 kt METAR EHLE 211255Z AUTO 27012KT 240V330 9999 FEW029 17/11 Q1021 NOSIG
14:25
M
17 °C 10 km+ 2.700 ft 270°   270° 11 kt METAR EHLE 211225Z AUTO 27011KT 220V310 9999 BKN027 BKN031 BKN036 17/11 Q1021 NOSIG
13:55
V
17 °C 10 km+ - 280°   280° 12 kt METAR EHLE 211155Z AUTO 28012KT 240V310 9999 FEW031 17/10 Q1020 NOSIG
13:25
V
17 °C 10 km+ 4.200 ft 260°   260° 13 kt METAR EHLE 211125Z AUTO 26013KT 230V300 9999 FEW026 SCT030 BKN042 17/10 Q1020 NOSIG
12:55
V
16 °C 10 km+ - 270°   270° 11 kt METAR EHLE 211055Z AUTO 27011KT 230V320 9999 FEW024 SCT036 16/11 Q1020 NOSIG
12:25
M
16 °C 10 km+ 2.500 ft 280°   280° 11 kt METAR EHLE 211025Z AUTO 28011KT 240V330 9999 BKN025 BKN029 BKN035 16/10 Q1020 NOSIG
11:55
M
16 °C 10 km+ 2.300 ft 270°   270° 12 kt METAR EHLE 210955Z AUTO 27012KT 230V310 9999 BKN023 BKN027 BKN030 16/11 Q1020 NOSIG
11:25
V
16 °C 10 km+ 3.100 ft 270°   270° 13 kt METAR EHLE 210925Z AUTO 27013KT 240V320 9999 SCT021 BKN031 16/11 Q1020 NOSIG
10:55
M
16 °C 10 km+ 2.300 ft 270°   270° 15 kt METAR EHLE 210855Z AUTO 27015KT 220V300 9999 SCT020 BKN023 BKN027 16/11 Q1020 NOSIG
10:25
M
15 °C 10 km+ 2.300 ft 270°   270° 14 kt METAR EHLE 210825Z AUTO 27014KT 230V300 9999 SCT019 BKN023 15/11 Q1020 NOSIG
09:55
M
15 °C 10 km+ 2.300 ft 280°   280° 14 kt METAR EHLE 210755Z AUTO 28014KT 230V310 9999 SCT019 BKN023 15/10 Q1019 NOSIG
09:25
V
15 °C 10 km+ - 260°   260° 14 kt METAR EHLE 210725Z AUTO 26014KT 230V290 9999 FEW019 SCT023 15/11 Q1019 NOSIG
08:55
V
15 °C 10 km+ - 260°   260° 14 kt METAR EHLE 210655Z AUTO 26014KT 9999 SCT018 15/11 Q1019 NOSIG
08:25
V
14 °C 10 km+ - 260°   260° 13 kt METAR EHLE 210625Z AUTO 26013KT 9999 FEW016 14/11 Q1018 NOSIG
07:55
V
14 °C 10 km+ - 260°   260° 11 kt METAR EHLE 210555Z AUTO 26011KT 220V290 9999 NCD 14/11 Q1018 NOSIG
07:25
V
13 °C 10 km+ - 260°   260° 11 kt METAR EHLE 210525Z AUTO 26011KT 9999 FEW018 13/11 Q1018 NOSIG
06:55
V
13 °C 10 km+ - 250°   250° 12 kt METAR EHLE 210455Z AUTO 25012KT 220V280 9999 SCT017 SCT021 13/11 Q1018 NOSIG
Datos más antiguos

Descarga nuestra aplicación

Acceso fácil a todo el tiempo de la aviación en tu teléfono móvil y tableta.
Con muchas funciones no disponibles en el sitio web, como la compatibilidad sin conexión y una lista personal de aeropuertos.

Nosotros y terceros seguimos tu comportamiento en Internet en nuestro sitio web con cookies. Si continúas, asumimos que estás de acuerdo con nuestra política de cookies. Más información